TimePDT,TemperatureF,Dew PointF,Humidity,Sea Level PressureIn,VisibilityMPH,Wind Direction,Wind SpeedMPH,Gust SpeedMPH,PrecipitationIn,Events,Conditions,WindDirDegrees,DateUTC
12:15 AM,53.6,30.2,41,30.23,10.0,SSW,3.5,-,N/A,,Clear,210,2013-08-12 07:15:00
12:35 AM,48.2,28.4,46,30.24,10.0,Calm,Calm,-,N/A,,Clear,0,2013-08-12 07:35:00
12:55 AM,44.6,26.6,49,30.24,10.0,Calm,Calm,-,N/A,,Clear,0,2013-08-12 07:55:00
1:15 AM,44.6,26.6,49,30.24,10.0,Calm,Calm,-,N/A,,Clear,0,2013-08-12 08:15:00
1:35 AM,44.6,28.4,53,30.23,10.0,Calm,Calm,-,N/A,,Clear,0,2013-08-12 08:35:00
1:55 AM,42.8,24.8,49,30.23,10.0,North,3.5,-,N/A,,Clear,360,2013-08-12 08:55:00
2:15 AM,42.8,26.6,53,30.23,10.0,Calm,Calm,-,N/A,,Clear,0,2013-08-12 09:15:00
2:35 AM,42.8,26.6,53,30.23,10.0,Calm,Calm,-,N/A,,Clear,0,2013-08-12 09:35:00
2:55 AM,42.8,26.6,53,30.23,10.0,North,3.5,-,N/A,,Clear,350,2013-08-12 09:55:00
3:15 AM,42.8,26.6,53,30.23,10.0,Calm,Calm,-,N/A,,Clear,0,2013-08-12 10:15:00
3:35 AM,42.8,26.6,53,30.23,10.0,Calm,Calm,-,N/A,,Clear,0,2013-08-12 10:35:00
3:55 AM,42.8,26.6,53,30.23,10.0,Calm,Calm,-,N/A,,Clear,0,2013-08-12 10:55:00
4:15 AM,42.8,24.8,49,30.22,10.0,Calm,Calm,-,N/A,,Clear,0,2013-08-12 11:15:00
4:35 AM,41.0,24.8,53,30.23,10.0,NNW,3.5,-,N/A,,Clear,330,2013-08-12 11:35:00
4:55 AM,41.0,24.8,53,30.23,10.0,North,3.5,-,N/A,,Clear,10,2013-08-12 11:55:00
5:15 AM,37.4,24.8,60,30.23,10.0,Calm,Calm,-,N/A,,Clear,0,2013-08-12 12:15:00
5:35 AM,39.2,23.0,52,30.23,10.0,NW,3.5,-,N/A,,Clear,320,2013-08-12 12:35:00
5:55 AM,41.0,23.0,49,30.24,10.0,WNW,4.6,-,N/A,,Clear,300,2013-08-12 12:55:00
6:15 AM,39.2,23.0,52,30.24,10.0,NNW,5.8,-,N/A,,Clear,330,2013-08-12 13:15:00
6:35 AM,39.2,21.2,49,30.25,10.0,NW,4.6,-,N/A,,Clear,320,2013-08-12 13:35:00
6:55 AM,39.2,23.0,52,30.25,10.0,WNW,4.6,-,N/A,,Clear,300,2013-08-12 13:55:00
7:15 AM,44.6,23.0,43,30.25,10.0,NW,4.6,-,N/A,,Clear,320,2013-08-12 14:15:00
7:35 AM,48.2,24.8,40,30.25,10.0,Calm,Calm,-,N/A,,Clear,0,2013-08-12 14:35:00
7:55 AM,51.8,24.8,35,30.25,10.0,Calm,Calm,-,N/A,,Clear,0,2013-08-12 14:55:00
8:15 AM,55.4,24.8,31,30.25,10.0,Calm,Calm,-,N/A,,Clear,0,2013-08-12 15:15:00
8:35 AM,59.0,30.2,34,30.25,10.0,SE,3.5,-,N/A,,Clear,140,2013-08-12 15:35:00
8:55 AM,60.8,30.2,31,30.26,10.0,Calm,Calm,-,N/A,,Clear,0,2013-08-12 15:55:00
9:15 AM,62.6,30.2,30,30.25,10.0,Calm,Calm,-,N/A,,Clear,0,2013-08-12 16:15:00
9:35 AM,68.0,28.4,23,30.25,10.0,ESE,3.5,-,N/A,,Clear,120,2013-08-12 16:35:00
9:55 AM,68.0,28.4,23,30.25,10.0,SE,3.5,-,N/A,,Clear,130,2013-08-12 16:55:00
10:15 AM,69.8,26.6,20,30.25,10.0,SE,5.8,-,N/A,,Clear,140,2013-08-12 17:15:00
11:15 AM,75.2,26.6,17,30.25,10.0,ESE,6.9,-,N/A,,Clear,110,2013-08-12 18:15:00
11:35 AM,75.2,26.6,17,30.25,10.0,ESE,10.4,-,N/A,,Clear,110,2013-08-12 18:35:00
11:55 AM,75.2,26.6,17,30.24,10.0,SE,8.1,18.4,N/A,,Clear,130,2013-08-12 18:55:00
12:15 PM,77.0,26.6,16,30.24,10.0,ESE,11.5,18.4,N/A,,Clear,110,2013-08-12 19:15:00
12:35 PM,77.0,26.6,16,30.24,10.0,ESE,8.1,16.1,N/A,,Clear,110,2013-08-12 19:35:00
12:55 PM,78.8,26.6,15,30.23,10.0,ESE,12.7,17.3,N/A,,Clear,120,2013-08-12 19:55:00
1:15 PM,78.8,24.8,14,30.23,10.0,ESE,11.5,21.9,N/A,,Clear,120,2013-08-12 20:15:00
1:35 PM,78.8,24.8,14,30.23,10.0,ESE,10.4,16.1,N/A,,Clear,120,2013-08-12 20:35:00
1:55 PM,78.8,24.8,14,30.23,10.0,East,6.9,20.7,N/A,,Scattered Clouds,80,2013-08-12 20:55:00
2:15 PM,80.6,23.0,12,30.22,10.0,SW,10.4,28.8,N/A,,Scattered Clouds,220,2013-08-12 21:15:00
2:35 PM,80.6,23.0,12,30.22,10.0,SW,16.1,29.9,N/A,,Clear,230,2013-08-12 21:35:00
2:55 PM,78.8,21.2,12,30.22,10.0,West,27.6,35.7,N/A,,Clear,270,2013-08-12 21:55:00
3:15 PM,78.8,21.2,12,30.22,10.0,West,18.4,34.5,N/A,,Scattered Clouds,270,2013-08-12 22:15:00
3:35 PM,78.8,21.2,12,30.23,10.0,West,25.3,34.5,N/A,,Scattered Clouds,280,2013-08-12 22:35:00
3:55 PM,78.8,21.2,12,30.23,10.0,WNW,26.5,36.8,N/A,,Scattered Clouds,290,2013-08-12 22:55:00
4:15 PM,78.8,19.4,11,30.23,10.0,West,24.2,40.3,N/A,,Scattered Clouds,280,2013-08-12 23:15:00
4:35 PM,77.0,19.4,12,30.23,10.0,WNW,25.3,33.4,N/A,,Scattered Clouds,290,2013-08-12 23:35:00
4:55 PM,77.0,19.4,12,30.23,10.0,WNW,23.0,33.4,N/A,,Clear,300,2013-08-12 23:55:00
5:15 PM,77.0,21.2,12,30.23,10.0,WNW,18.4,32.2,N/A,,Clear,300,2013-08-13 00:15:00
5:35 PM,75.2,21.2,13,30.24,10.0,WNW,21.9,28.8,N/A,,Clear,300,2013-08-13 00:35:00
5:55 PM,75.2,21.2,13,30.24,10.0,West,20.7,27.6,N/A,,Clear,280,2013-08-13 00:55:00
6:15 PM,75.2,21.2,13,30.24,10.0,WNW,18.4,27.6,N/A,,Clear,290,2013-08-13 01:15:00
6:35 PM,73.4,21.2,14,30.24,10.0,West,20.7,27.6,N/A,,Clear,280,2013-08-13 01:35:00
6:55 PM,71.6,21.2,15,30.24,10.0,WNW,19.6,28.8,N/A,,Clear,290,2013-08-13 01:55:00
7:15 PM,69.8,23.0,17,30.24,10.0,WNW,17.3,28.8,N/A,,Clear,290,2013-08-13 02:15:00
7:35 PM,68.0,24.8,20,30.25,10.0,WNW,13.8,26.5,N/A,,Clear,300,2013-08-13 02:35:00
7:55 PM,66.2,26.6,23,30.25,10.0,WNW,16.1,26.5,N/A,,Clear,290,2013-08-13 02:55:00
8:15 PM,64.4,26.6,24,30.26,10.0,WNW,19.6,-,N/A,,Clear,290,2013-08-13 03:15:00
8:35 PM,62.6,28.4,27,30.26,10.0,West,16.1,21.9,N/A,,Clear,280,2013-08-13 03:35:00
8:55 PM,60.8,28.4,29,30.27,10.0,West,13.8,20.7,N/A,,Clear,270,2013-08-13 03:55:00
9:15 PM,60.8,28.4,29,30.27,10.0,West,16.1,21.9,N/A,,Clear,270,2013-08-13 04:15:00
9:55 PM,57.2,26.6,31,30.28,10.0,WNW,8.1,-,N/A,,Clear,300,2013-08-13 04:55:00
10:15 PM,57.2,24.8,29,30.29,10.0,Calm,Calm,-,N/A,,Clear,0,2013-08-13 05:15:00
10:35 PM,57.2,23.0,27,30.29,10.0,West,3.5,-,N/A,,Clear,280,2013-08-13 05:35:00
10:55 PM,57.2,21.2,25,30.29,10.0,Calm,Calm,-,N/A,,Clear,0,2013-08-13 05:55:00
11:15 PM,53.6,19.4,26,30.29,10.0,Calm,Calm,-,N/A,,Clear,0,2013-08-13 06:15:00
11:35 PM,53.6,21.2,28,30.30,10.0,West,5.8,-,N/A,,Clear,270,2013-08-13 06:35:00
11:55 PM,51.8,23.0,33,30.30,10.0,West,5.8,-,N/A,,Clear,270,2013-08-13 06:55:00